period_start,C,m1,H,J0,J1,J2,J3,J4,J5,JA,JB,JC,JD,JJ,JK,JN,#
2016-04-21 00:01:50,0.09,2.06,0.00,14.24,19.01,23.05,15.34,50.62,1028.33,2067.98,2722.79,2676.44,2988.35,600.44,621.74,31.18,0000 0000 0000 0000 000000
2016-04-21 00:06:51,0.08,2.06,0.00,14.23,19.02,23.06,15.23,50.62,1028.33,2067.98,2721.20,2675.43,2986.99,599.96,621.37,31.23,0000 0000 0000 0000 000000
2016-04-21 00:11:52,0.09,2.06,0.00,14.30,19.03,23.07,15.31,50.73,1028.33,2067.95,2719.72,2674.48,2985.76,599.92,621.09,31.28,0000 0000 0000 0000 000000
2016-04-21 00:16:54,0.08,2.07,0.00,14.33,19.04,23.08,15.27,50.88,1028.33,2067.93,2718.11,2673.60,2984.59,599.99,621.07,31.33,0000 0000 0000 0000 000000
2016-04-21 00:21:55,0.07,2.07,0.00,14.29,19.07,23.07,15.23,50.66,1028.33,2067.91,2716.57,2672.70,2983.49,599.97,621.20,31.38,0000 0000 0000 0000 000000
2016-04-21 00:26:56,0.07,2.08,0.00,14.34,19.08,23.08,15.23,50.80,1028.33,2067.68,2714.86,2671.63,2982.13,599.87,620.95,31.43,0000 0000 0000 0000 000000
2016-04-21 00:31:58,0.07,2.08,0.00,14.40,19.10,23.15,15.25,50.72,1028.33,2067.37,2712.96,2670.49,2980.69,600.09,621.10,31.48,0000 0000 0000 0000 000000
2016-04-21 00:36:59,0.06,2.08,0.00,14.41,19.12,23.15,15.29,50.67,1028.34,2067.14,2711.37,2669.55,2979.48,599.99,620.91,31.53,0000 0000 0000 0000 000000
2016-04-21 00:42:00,0.06,2.09,0.00,14.38,19.14,23.18,15.20,50.68,1028.34,2067.13,2709.79,2668.80,2978.52,599.51,620.49,31.58,0000 0000 0000 0000 000000
2016-04-21 00:47:01,0.07,2.09,0.00,14.46,19.17,23.19,15.22,50.79,1028.34,2067.11,2708.52,2668.04,2977.55,600.06,620.88,31.63,0000 0000 0000 0000 000000
2016-04-21 00:52:02,0.08,2.10,0.00,14.49,19.19,23.27,15.21,50.68,1028.34,2067.06,2706.94,2667.22,2976.44,600.10,620.85,31.68,0000 0000 0000 0000 000000
2016-04-21 00:57:04,0.08,2.10,0.00,14.45,19.22,23.27,15.20,50.82,1028.34,2067.03,2705.26,2666.26,2975.17,599.70,620.52,31.73,0000 0000 0000 0000 000000
2016-04-21 01:02:05,0.10,2.10,0.00,14.48,19.25,23.25,15.27,50.87,1028.34,2067.00,2703.48,2665.25,2973.73,600.09,620.83,31.78,0000 0000 0000 0000 000000
2016-04-21 01:07:06,0.09,2.11,0.00,14.55,19.28,23.28,15.32,50.77,1028.34,2067.00,2701.66,2664.20,2972.40,600.20,620.81,31.83,0000 0000 0000 0000 000000
2016-04-21 01:12:08,0.11,2.11,0.00,14.61,19.30,23.33,15.28,50.81,1028.34,2066.98,2699.64,2662.98,2970.75,600.29,620.80,31.88,0000 0000 0000 0000 000000
2016-04-21 01:17:09,0.12,2.12,0.00,15.18,19.35,23.22,15.15,50.68,1028.34,2066.98,2697.49,2661.70,2969.26,599.94,619.20,31.93,0000 0000 0000 0000 000000
2016-04-21 01:22:10,0.14,2.13,0.00,15.55,19.41,23.10,15.18,50.74,1028.34,2066.80,2695.05,2660.00,2967.21,599.96,618.39,31.98,0000 0000 0000 0000 000000
2016-04-21 01:27:11,0.12,2.13,0.00,15.76,19.47,23.10,15.10,50.73,1028.35,2066.14,2692.01,2657.84,2964.69,599.70,617.78,32.03,0000 0000 0000 0000 000000
2016-04-21 01:32:13,0.17,2.14,0.00,15.99,19.53,23.23,15.07,50.74,1028.35,2066.01,2689.14,2655.75,2962.24,600.07,617.60,32.08,0000 0000 0000 0000 000000
2016-04-21 01:37:14,0.13,2.15,0.00,16.07,19.59,23.24,15.16,50.75,1028.36,2065.99,2686.70,2654.05,2960.21,600.23,617.59,32.13,0000 0000 0000 0000 000000
2016-04-21 01:42:15,0.16,2.16,0.00,15.91,19.65,23.35,15.10,50.83,1028.41,2065.79,2683.85,2652.01,2957.78,600.03,617.76,32.18,0000 0000 0000 0000 000000
2016-04-21 01:47:16,0.12,2.16,0.00,15.78,19.70,23.39,15.19,50.83,1028.41,2065.20,2680.74,2649.87,2955.29,600.22,618.26,32.23,0000 0000 0000 0000 000000
2016-04-21 01:52:18,0.16,2.17,0.00,15.72,19.74,23.41,15.03,50.74,1028.58,2065.02,2677.87,2647.98,2953.01,599.64,618.01,32.28,0000 0000 0000 0000 000000
2016-04-21 01:57:19,0.15,2.18,0.00,15.64,19.78,23.47,15.14,50.81,1028.68,2065.00,2675.10,2646.14,2950.80,599.97,618.45,32.33,0000 0000 0000 0000 000000
2016-04-21 02:02:21,0.14,2.19,0.00,15.58,19.82,23.65,15.23,50.70,1028.69,2064.98,2672.51,2644.51,2948.80,600.18,618.63,32.38,0000 0000 0000 0000 000000
2016-04-21 02:07:22,0.14,2.20,0.00,15.57,19.85,23.85,15.11,50.61,1028.72,2064.96,2670.00,2642.94,2946.85,600.05,618.67,32.44,0000 0000 0000 0000 000000
2016-04-21 02:12:23,0.13,2.20,0.00,15.54,19.88,23.89,15.27,50.80,1028.75,2064.73,2667.11,2641.14,2944.69,600.09,618.83,32.49,0000 0000 0000 0000 000000
2016-04-21 02:17:25,0.13,2.21,0.00,15.52,19.90,23.93,15.21,50.72,1028.78,2064.47,2664.26,2639.49,2942.65,600.06,618.84,32.54,0000 0000 0000 0000 000000
2016-04-21 02:22:26,0.14,2.21,0.00,15.55,19.93,23.97,15.23,50.83,1028.81,2064.10,2661.36,2637.71,2940.45,599.90,618.78,32.59,0000 0000 0000 0000 000000
2016-04-21 02:27:27,0.15,2.22,0.00,15.60,19.94,24.00,15.18,50.71,1028.81,2064.08,2658.44,2636.11,2938.30,600.14,618.67,32.64,0000 0000 0000 0000 000000
2016-04-21 02:32:29,0.18,2.23,0.00,15.66,19.97,24.00,15.21,50.66,1028.81,2064.04,2655.10,2634.34,2936.12,600.23,618.75,32.69,0000 0000 0000 0000 000000
2016-04-21 02:37:30,0.14,2.24,0.00,15.71,19.99,24.13,15.18,50.85,1028.81,2064.02,2652.03,2632.64,2933.90,599.98,618.44,32.74,0000 0000 0000 0000 000000
2016-04-21 02:42:31,0.13,2.25,0.00,15.75,20.02,24.13,15.13,50.78,1028.82,2064.00,2649.64,2631.28,2932.05,599.81,618.12,32.79,0000 0000 0000 0000 000000
2016-04-21 02:47:32,0.16,2.26,0.00,15.83,20.04,24.14,15.21,50.90,1028.82,2064.01,2646.91,2629.66,2930.06,600.14,618.34,32.84,0000 0000 0000 0000 000000
2016-04-21 02:52:34,0.12,2.26,0.00,15.92,20.06,24.15,15.20,50.81,1028.82,2064.00,2644.50,2628.20,2928.11,600.04,618.02,32.89,0000 0000 0000 0000 000000
2016-04-21 02:57:35,0.13,2.27,0.00,16.03,20.09,24.15,15.16,50.73,1028.83,2063.98,2642.28,2626.84,2926.44,600.07,617.82,32.94,0000 0000 0000 0000 000000
2016-04-21 03:02:36,0.13,2.28,0.00,16.07,20.12,24.12,15.11,50.65,1028.84,2063.96,2639.97,2625.55,2924.72,600.19,617.85,32.99,0000 0000 0000 0000 000000
2016-04-21 03:07:37,0.08,2.28,0.00,16.12,20.15,24.17,15.13,50.76,1028.83,2063.56,2637.53,2624.06,2922.91,599.92,617.39,33.04,0000 0000 0000 0000 000000
2016-04-21 03:12:39,0.09,2.29,0.00,16.11,20.18,24.13,15.13,50.72,1028.85,2063.15,2635.21,2622.83,2921.18,599.95,617.53,33.09,0000 0000 0000 0000 000000
2016-04-21 03:17:40,0.12,2.29,0.00,16.09,20.21,24.18,15.12,50.71,1028.87,2063.03,2632.73,2621.50,2919.42,599.83,617.44,33.14,0000 0000 0000 0000 000000
2016-04-21 03:22:41,0.14,2.30,0.00,16.09,20.25,24.27,15.16,50.72,1028.86,2063.01,2630.23,2620.04,2917.59,600.06,617.72,33.19,0000 0000 0000 0000 000000
2016-04-21 03:27:42,0.14,2.30,0.00,16.07,20.29,24.36,15.14,50.86,1028.83,2063.00,2627.69,2618.63,2915.75,599.96,617.51,33.24,0000 0000 0000 0000 000000
2016-04-21 03:32:43,0.15,2.31,0.00,16.09,20.33,24.39,15.15,50.77,1028.83,2062.99,2624.99,2617.02,2913.74,600.01,617.61,33.30,0000 0000 0000 0000 000000
2016-04-21 03:37:45,0.14,2.32,0.00,16.08,20.36,24.47,15.11,50.88,1028.84,2062.97,2622.56,2615.57,2911.83,599.92,617.54,33.35,0000 0000 0000 0000 000000
2016-04-21 03:42:46,0.12,2.33,0.00,16.10,20.40,24.57,15.20,50.92,1028.84,2062.83,2620.07,2614.08,2909.88,600.44,617.98,33.40,0000 0000 0000 0000 000000
2016-04-21 03:47:48,0.09,2.33,0.00,16.09,20.43,24.67,15.13,50.89,1028.88,2062.23,2617.35,2612.58,2908.03,599.84,617.35,33.45,0000 0000 0000 0000 000000
2016-04-21 03:52:49,0.12,2.34,0.00,16.10,20.47,24.68,15.16,50.77,1028.91,2062.05,2614.74,2611.30,2906.22,599.97,617.61,33.50,0000 0000 0000 0000 000000
2016-04-21 03:57:50,0.13,2.34,0.00,16.09,20.51,24.71,15.21,50.78,1028.99,2062.01,2612.28,2609.95,2904.52,600.28,617.99,33.55,0000 0000 0000 0000 000000
2016-04-21 04:02:51,0.15,2.35,0.00,16.09,20.54,24.75,15.14,50.84,1029.03,2062.01,2609.59,2608.59,2902.66,599.80,617.60,33.60,0000 0000 0000 0000 000000
2016-04-21 04:07:53,0.16,2.36,0.00,16.11,20.58,24.84,15.19,50.84,1029.06,2062.00,2606.57,2606.89,2900.33,599.84,617.63,33.65,0000 0000 0000 0000 000000
2016-04-21 04:12:54,0.15,2.37,0.00,16.13,20.61,24.88,15.18,50.92,1029.09,2061.99,2603.72,2605.32,2898.18,600.13,617.82,33.70,0000 0000 0000 0000 000000
2016-04-21 04:17:55,0.16,2.38,0.00,16.13,20.64,24.92,15.22,50.88,1029.04,2061.98,2600.99,2603.77,2896.04,599.91,617.56,33.75,0000 0000 0000 0000 000000
2016-04-21 04:22:57,0.15,2.38,0.00,16.14,20.67,24.91,15.15,50.97,1029.11,2061.91,2598.01,2602.14,2893.73,599.87,617.47,33.80,0000 0000 0000 0000 000000
2016-04-21 04:27:58,0.08,2.39,0.00,16.15,20.69,24.97,15.21,50.83,1029.11,2061.58,2595.67,2600.94,2891.92,599.82,617.35,33.85,0000 0000 0000 0000 000000
2016-04-21 04:32:59,0.09,2.39,0.00,16.16,20.72,25.00,15.16,50.91,1029.02,2061.19,2593.34,2599.79,2890.22,599.77,617.34,33.90,0000 0000 0000 0000 000000
2016-04-21 04:38:00,0.17,2.40,0.00,16.17,20.74,25.01,15.20,50.97,1028.89,2061.05,2590.40,2598.14,2887.92,600.04,617.47,33.95,0000 0000 0000 0000 000000
2016-04-21 04:43:01,0.15,2.41,0.00,16.18,20.76,25.01,15.22,51.02,1028.91,2061.02,2587.45,2596.41,2885.54,600.08,617.50,34.00,0000 0000 0000 0000 000000
2016-04-21 04:48:03,0.11,2.42,0.00,16.18,20.78,25.07,15.21,51.07,1028.90,2061.00,2585.27,2595.22,2883.81,600.05,617.43,34.05,0000 0000 0000 0000 000000
2016-04-21 04:53:04,0.10,2.42,0.00,16.20,20.79,25.14,15.13,50.91,1028.91,2061.00,2583.21,2594.22,2882.24,599.61,617.03,34.10,0000 0000 0000 0000 000000
2016-04-21 04:58:06,0.12,2.43,0.00,16.22,20.80,25.12,15.14,50.88,1028.97,2061.00,2581.05,2593.17,2880.63,600.11,617.56,34.15,0000 0000 0000 0000 000000
2016-04-21 05:03:07,0.13,2.43,0.00,16.23,20.82,25.13,15.17,50.87,1029.02,2061.00,2578.73,2592.01,2878.99,599.99,617.49,34.21,0000 0000 0000 0000 000000
2016-04-21 05:08:08,0.11,2.44,0.00,16.25,20.82,25.13,15.20,50.93,1028.99,2061.00,2576.47,2590.86,2877.42,600.02,617.38,34.26,0000 0000 0000 0000 000000
2016-04-21 05:13:10,0.10,2.45,0.00,16.26,20.84,25.14,15.15,50.95,1028.96,2060.99,2574.62,2589.91,2875.86,599.82,617.13,34.31,0000 0000 0000 0000 000000
2016-04-21 05:18:11,0.08,2.45,0.00,16.27,20.84,25.18,15.23,50.92,1028.97,2060.97,2573.03,2589.05,2874.60,600.08,617.44,34.36,0000 0000 0000 0000 000000
2016-04-21 05:23:12,0.08,2.46,0.00,16.28,20.86,25.15,15.18,50.88,1028.92,2060.96,2571.66,2588.29,2873.53,600.00,617.24,34.41,0000 0000 0000 0000 000000
2016-04-21 05:28:13,0.09,2.46,0.00,16.29,20.87,25.22,15.21,50.82,1028.89,2060.95,2569.97,2587.40,2872.12,600.12,617.31,34.46,0000 0000 0000 0000 000000
2016-04-21 05:33:15,0.11,2.47,0.00,16.29,20.87,25.19,15.21,50.90,1028.86,2060.92,2568.09,2586.39,2870.55,599.93,617.12,34.51,0000 0000 0000 0000 000000
2016-04-21 05:38:16,0.12,2.47,0.00,16.31,20.89,25.21,15.13,50.82,1028.88,2060.87,2565.99,2585.10,2868.79,600.09,617.31,34.56,0000 0000 0000 0000 000000
2016-04-21 05:43:17,0.13,2.48,0.00,16.32,20.89,25.22,15.16,50.85,1028.89,2060.84,2563.66,2583.90,2866.99,599.83,617.11,34.61,0000 0000 0000 0000 000000
2016-04-21 05:48:18,0.11,2.49,0.00,16.33,20.90,25.22,15.06,50.87,1028.93,2060.70,2561.28,2582.64,2865.12,599.94,617.10,34.66,0000 0000 0000 0000 000000
2016-04-21 05:53:20,0.10,2.49,0.00,16.34,20.92,25.25,15.19,50.92,1028.97,2060.47,2559.09,2581.47,2863.30,599.96,617.15,34.71,0000 0000 0000 0000 000000
2016-04-21 05:58:21,0.17,2.50,0.00,16.34,20.92,25.28,15.10,50.94,1029.00,2060.28,2556.53,2579.87,2861.14,599.68,616.77,34.76,0000 0000 0000 0000 000000
2016-04-21 06:03:22,0.13,2.51,0.00,16.34,20.92,25.27,15.19,51.02,1029.12,2060.21,2553.81,2578.44,2859.04,599.88,617.09,34.81,0000 0000 0000 0000 000000
2016-04-21 06:08:23,0.17,2.51,0.00,16.34,20.93,25.23,15.23,51.02,1029.22,2060.15,2551.02,2576.83,2856.86,599.93,617.28,34.86,0000 0000 0000 0000 000000
2016-04-21 06:13:25,0.17,2.52,0.00,16.35,20.94,25.29,15.11,51.08,1029.21,2060.11,2547.89,2575.15,2854.46,599.73,616.97,34.91,0000 0000 0000 0000 000000
2016-04-21 06:18:26,0.15,2.53,0.00,16.34,20.94,25.29,15.20,51.08,1029.29,2060.08,2545.33,2573.71,2852.47,599.91,617.32,34.96,0000 0000 0000 0000 000000
2016-04-21 06:23:27,0.12,2.54,0.00,16.34,20.94,25.32,15.18,51.01,1029.30,2060.03,2543.02,2572.54,2850.69,599.85,617.20,35.01,0000 0000 0000 0000 000000
2016-04-21 06:28:29,0.18,2.55,0.00,16.34,20.94,25.29,15.17,50.94,1029.31,2060.07,2540.02,2570.91,2848.50,599.81,617.16,35.06,0000 0000 0000 0000 000000
2016-04-21 06:33:30,0.17,2.55,0.00,16.33,20.94,25.31,15.21,50.93,1029.30,2060.07,2537.06,2569.22,2846.09,600.33,617.73,35.12,0000 0000 0000 0000 000000
2016-04-21 06:38:31,0.14,2.56,0.00,16.35,20.95,25.29,15.13,51.00,1029.30,2060.04,2534.41,2567.76,2844.05,599.70,616.93,35.17,0000 0000 0000 0000 000000
2016-04-21 06:43:33,0.13,2.57,0.00,16.34,20.95,25.29,15.09,50.91,1029.30,2060.03,2532.04,2566.52,2842.19,599.83,617.16,35.22,0000 0000 0000 0000 000000
2016-04-21 06:48:34,0.13,2.58,0.00,16.35,20.95,25.31,15.17,50.92,1029.31,2060.03,2529.60,2565.17,2840.23,599.77,617.10,35.27,0000 0000 0000 0000 000000
2016-04-21 06:53:35,0.12,2.58,0.00,16.34,20.95,25.31,15.11,50.88,1029.31,2060.02,2527.40,2564.03,2838.51,599.77,617.00,35.32,0000 0000 0000 0000 000000
2016-04-21 06:58:37,0.11,2.59,0.00,16.34,20.95,25.33,15.13,50.86,1029.31,2060.02,2525.31,2562.99,2836.95,600.21,617.61,35.37,0000 0000 0000 0000 000000
2016-04-21 07:03:38,0.14,2.60,0.00,16.35,20.95,25.33,15.25,50.93,1029.31,2060.02,2522.99,2561.77,2835.14,600.32,617.79,35.42,0000 0000 0000 0000 000000
2016-04-21 07:08:39,0.11,2.60,0.00,16.33,20.95,25.28,15.16,50.90,1029.31,2060.02,2520.78,2560.69,2833.47,599.81,617.20,35.47,0000 0000 0000 0000 000000
2016-04-21 07:13:41,0.13,2.61,0.00,16.32,20.95,25.27,15.18,51.10,1029.31,2060.02,2518.63,2559.52,2831.78,599.80,617.28,35.52,0000 0000 0000 0000 000000
2016-04-21 07:18:42,0.10,2.61,0.00,16.30,20.95,25.27,15.21,51.04,1029.31,2060.02,2516.61,2558.70,2830.18,600.22,617.57,35.57,0000 0000 0000 0000 000000
2016-04-21 07:23:43,0.10,2.62,0.00,16.28,20.94,25.24,15.23,51.06,1029.31,2060.01,2514.79,2557.88,2828.76,600.02,617.51,35.62,0000 0000 0000 0000 000000
2016-04-21 07:28:44,0.09,2.62,0.00,16.27,20.94,25.29,15.17,51.06,1029.31,2060.02,2512.98,2557.06,2827.56,600.10,617.62,35.67,0000 0000 0000 0000 000000
2016-04-21 07:33:46,0.08,2.63,0.00,16.27,20.94,25.26,15.18,50.98,1029.31,2060.00,2511.38,2556.41,2826.40,600.13,617.71,35.72,0000 0000 0000 0000 000000
2016-04-21 07:38:47,0.18,2.64,0.00,16.26,20.94,25.26,15.26,50.99,1029.31,2060.01,2508.24,2555.27,2824.68,600.36,618.00,35.77,0000 0000 0000 0000 000000
2016-04-21 07:43:49,0.20,2.65,0.00,16.23,20.94,25.27,15.19,50.95,1029.31,2060.01,2503.53,2553.43,2822.29,600.02,617.61,35.82,0000 0000 0000 0000 000000
2016-04-21 07:48:50,0.13,2.65,0.00,16.22,20.94,25.28,15.24,51.05,1029.31,2060.02,2500.78,2552.45,2820.72,600.02,617.58,35.87,0000 0000 0000 0000 000000
2016-04-21 07:53:51,0.08,2.66,0.00,16.21,20.94,25.25,15.19,50.90,1029.31,2060.02,2498.73,2551.87,2819.44,600.09,617.80,35.92,0000 0000 0000 0000 000000
2016-04-21 07:58:52,0.08,2.66,0.00,16.20,20.94,25.25,15.20,51.02,1029.31,2060.03,2497.15,2551.08,2818.45,599.97,617.48,35.98,0000 0000 0000 0000 000000
2016-04-21 08:03:54,0.08,2.67,0.00,16.21,20.93,25.22,15.20,50.93,1029.31,2060.04,2495.60,2550.65,2817.41,600.11,617.75,36.03,0000 0000 0000 0000 000000
2016-04-21 08:08:55,0.07,2.67,0.00,16.19,20.92,25.19,15.21,51.05,1029.31,2060.05,2494.15,2550.01,2816.35,600.01,617.83,36.08,0000 0000 0000 0000 000000
2016-04-21 08:13:56,0.09,2.68,0.00,16.17,20.92,25.19,15.21,51.07,1029.31,2060.05,2492.64,2549.32,2815.44,600.04,617.90,36.13,0000 0000 0000 0000 000000
2016-04-21 08:18:57,0.05,2.68,0.00,16.16,20.92,25.21,15.21,50.99,1029.32,2060.05,2491.39,2548.98,2814.54,599.86,617.60,36.18,0000 0000 0000 0000 000000
2016-04-21 08:23:58,0.07,2.68,0.00,16.14,20.92,25.17,15.27,51.13,1029.31,2060.07,2489.99,2548.23,2813.69,600.51,618.31,36.23,0000 0000 0000 0000 000000
2016-04-21 08:29:00,0.08,2.69,0.00,16.13,20.92,25.13,15.26,51.01,1029.31,2060.08,2488.51,2547.74,2812.61,600.21,618.01,36.28,0000 0000 0000 0000 000000
2016-04-21 08:34:01,0.06,2.69,0.00,16.12,20.90,25.12,15.20,50.97,1029.31,2060.14,2487.34,2547.04,2811.80,599.87,617.73,36.33,0000 0000 0000 0000 000000
2016-04-21 08:39:02,0.07,2.69,0.00,16.12,20.90,25.13,15.25,50.90,1029.31,2060.07,2486.07,2546.53,2810.94,600.03,617.80,36.38,0000 0000 0000 0000 000000
2016-04-21 08:44:04,0.06,2.70,0.00,16.11,20.89,25.17,15.14,50.83,1029.31,2060.11,2484.84,2545.99,2810.04,599.88,617.73,36.43,0000 0000 0000 0000 000000
2016-04-21 08:49:05,0.08,2.70,0.00,16.10,20.89,25.16,15.22,51.00,1029.31,2060.07,2483.62,2545.26,2809.12,600.18,618.03,36.48,0000 0000 0000 0000 000000
2016-04-21 08:54:06,0.05,2.70,0.00,16.09,20.89,25.15,15.21,50.88,1029.31,2060.12,2482.52,2544.98,2808.28,600.12,618.02,36.53,0000 0000 0000 0000 000000
2016-04-21 08:59:07,0.08,2.71,0.00,16.08,20.89,25.14,15.22,50.92,1029.31,2060.17,2481.39,2544.20,2807.57,600.08,617.93,36.58,0000 0000 0000 0000 000000
2016-04-21 09:04:09,0.05,2.71,0.00,16.08,20.89,25.08,15.24,51.01,1029.33,2060.32,2480.27,2543.97,2806.80,600.39,618.40,36.63,0000 0000 0000 0000 000000
2016-04-21 09:09:10,0.07,2.72,0.00,16.07,20.88,25.10,15.23,51.10,1029.32,2060.24,2479.04,2543.20,2805.94,599.73,617.62,36.68,0000 0000 0000 0000 000000
2016-04-21 09:14:11,0.09,2.72,0.00,16.05,20.87,25.09,15.20,51.08,1029.31,2060.45,2477.78,2542.79,2805.05,599.89,617.79,36.73,0000 0000 0000 0000 000000
2016-04-21 09:19:13,0.05,2.72,0.00,16.04,20.87,25.08,15.20,51.00,1029.32,2060.30,2476.61,2542.06,2804.15,600.15,618.09,36.78,0000 0000 0000 0000 000000
2016-04-21 09:24:14,0.07,2.73,0.00,16.03,20.87,25.08,15.31,51.05,1029.33,2060.44,2475.55,2541.68,2803.43,600.55,618.59,36.83,0000 0000 0000 0000 000000
2016-04-21 09:29:16,0.06,2.73,0.00,16.02,20.87,25.05,15.18,51.07,1029.34,2060.58,2474.44,2541.03,2802.69,599.68,617.81,36.88,0000 0000 0000 0000 000000
2016-04-21 09:34:17,0.06,2.73,0.00,16.02,20.87,25.03,15.21,51.11,1029.33,2060.46,2473.29,2540.53,2801.85,599.53,617.57,36.94,0000 0000 0000 0000 000000
2016-04-21 09:39:18,0.06,2.74,0.00,16.02,20.87,25.05,15.23,50.96,1029.33,2060.49,2472.16,2540.00,2801.04,600.12,618.18,36.99,0000 0000 0000 0000 000000
2016-04-21 09:44:20,0.07,2.74,0.00,16.02,20.87,25.03,15.23,51.05,1029.33,2060.66,2471.00,2539.46,2800.27,600.29,618.37,37.04,0000 0000 0000 0000 000000
2016-04-21 09:49:21,0.07,2.74,0.00,16.01,20.86,25.02,15.23,51.03,1029.34,2060.74,2469.83,2538.99,2799.53,600.43,618.47,37.09,0000 0000 0000 0000 000000
2016-04-21 09:54:22,0.09,2.75,0.00,15.99,20.85,25.03,15.22,51.10,1029.35,2060.84,2468.71,2538.23,2798.73,599.84,617.98,37.14,0000 0000 0000 0000 000000
2016-04-21 09:59:23,0.05,2.75,0.00,15.97,20.84,25.03,15.23,51.08,1029.38,2060.93,2467.59,2537.95,2797.91,600.32,618.57,37.19,0000 0000 0000 0000 000000
2016-04-21 10:04:25,0.08,2.76,0.00,15.95,20.84,25.01,15.18,51.10,1029.43,2060.93,2466.45,2537.15,2797.07,599.78,617.97,37.24,0000 0000 0000 0000 000000
2016-04-21 10:09:25,0.05,2.76,0.00,15.94,20.84,25.01,15.20,51.09,1029.43,2060.91,2465.27,2536.84,2796.20,600.01,618.20,37.29,0000 0000 0000 0000 000000
2016-04-21 10:14:27,0.07,2.76,0.00,15.93,20.82,24.94,15.21,51.13,1029.44,2060.95,2464.13,2536.08,2795.39,600.20,618.54,37.34,0000 0000 0000 0000 000000
2016-04-21 10:19:28,0.05,2.77,0.00,15.92,20.82,24.97,15.22,51.18,1029.50,2060.98,2463.03,2535.83,2794.76,600.17,618.64,37.39,0000 0000 0000 0000 000000
2016-04-21 10:24:29,0.06,2.77,0.00,15.91,20.82,24.92,15.16,51.15,1029.56,2060.98,2461.89,2535.05,2793.96,600.04,618.37,37.44,0000 0000 0000 0000 000000
2016-04-21 10:29:31,0.07,2.77,0.00,15.89,20.81,24.94,15.20,51.17,1029.50,2060.98,2460.75,2534.58,2793.10,599.70,618.09,37.49,0000 0000 0000 0000 000000
2016-04-21 10:34:32,0.05,2.78,0.00,15.87,20.79,24.90,15.22,51.16,1029.56,2060.98,2459.65,2534.01,2792.28,599.90,618.27,37.54,0000 0000 0000 0000 000000
2016-04-21 10:39:33,0.07,2.78,0.00,15.86,20.79,24.89,15.27,51.18,1029.64,2060.98,2458.54,2533.42,2791.55,599.95,618.53,37.59,0000 0000 0000 0000 000000
2016-04-21 10:44:35,0.04,2.78,0.00,15.83,20.77,24.90,15.27,51.21,1029.58,2060.98,2457.39,2532.97,2790.72,600.36,619.02,37.64,0000 0000 0000 0000 000000
2016-04-21 10:49:36,0.07,2.79,0.00,15.82,20.77,24.87,15.26,51.26,1029.53,2060.98,2456.29,2532.24,2789.98,599.97,618.54,37.69,0000 0000 0000 0000 000000
2016-04-21 10:54:37,0.05,2.79,0.00,15.81,20.75,24.79,15.25,51.16,1029.48,2060.99,2455.20,2531.96,2789.12,600.19,618.75,37.74,0000 0000 0000 0000 000000
2016-04-21 10:59:39,0.08,2.79,0.00,15.80,20.74,24.77,15.24,51.29,1029.44,2060.99,2454.02,2531.16,2788.37,599.89,618.54,37.80,0000 0000 0000 0000 000000
2016-04-21 11:04:40,0.05,2.79,0.00,15.78,20.73,24.81,15.23,51.29,1029.40,2060.99,2452.90,2530.82,2787.69,599.88,618.46,37.85,0000 0000 0000 0000 000000
2016-04-21 11:09:41,0.07,2.80,0.00,15.76,20.72,24.76,15.23,51.29,1029.34,2060.99,2451.79,2530.05,2786.88,600.22,618.87,37.90,0000 0000 0000 0000 000000
2016-04-21 11:14:43,0.05,2.80,0.00,15.75,20.71,24.73,15.25,51.23,1029.37,2060.99,2450.74,2529.78,2786.05,599.92,618.56,37.95,0000 0000 0000 0000 000000
2016-04-21 11:19:44,0.06,2.80,0.00,15.73,20.69,24.72,15.19,51.37,1029.36,2060.99,2449.65,2529.05,2785.42,599.75,618.43,38.00,0000 0000 0000 0000 000000
2016-04-21 11:24:45,0.06,2.81,0.00,15.73,20.68,24.65,15.27,51.19,1029.38,2060.99,2448.62,2528.63,2784.66,600.16,618.80,38.05,0000 0000 0000 0000 000000
2016-04-21 11:29:47,0.04,2.81,0.00,15.72,20.67,24.69,15.21,51.16,1029.41,2061.00,2447.65,2528.02,2784.01,600.03,618.73,38.10,0000 0000 0000 0000 000000
2016-04-21 11:34:48,0.05,2.81,0.00,15.72,20.65,24.66,15.30,51.38,1029.39,2061.01,2446.63,2527.86,2783.26,600.22,618.98,38.15,0000 0000 0000 0000 000000
2016-04-21 11:39:49,0.07,2.82,0.00,15.69,20.64,24.63,15.19,51.23,1029.34,2061.02,2445.66,2527.08,2782.57,599.74,618.51,38.20,0000 0000 0000 0000 000000
2016-04-21 11:44:51,0.06,2.82,0.00,15.67,20.62,24.67,15.23,51.37,1029.34,2061.05,2444.57,2526.65,2781.90,599.99,618.89,38.25,0000 0000 0000 0000 000000
2016-04-21 11:49:52,0.05,2.82,0.00,15.64,20.62,24.65,15.24,51.23,1029.44,2061.05,2443.50,2526.02,2781.04,599.93,618.94,38.30,0000 0000 0000 0000 000000
2016-04-21 11:54:53,0.08,2.83,0.00,15.63,20.59,24.57,15.24,51.17,1029.44,2061.06,2442.28,2525.44,2780.15,599.72,618.68,38.35,0000 0000 0000 0000 000000
2016-04-21 11:59:55,0.05,2.83,0.00,15.62,20.58,24.57,15.25,51.23,1029.40,2061.07,2441.11,2524.99,2779.42,599.87,618.82,38.40,0000 0000 0000 0000 000000
2016-04-21 12:04:56,0.10,2.83,0.00,15.60,20.57,24.57,15.24,51.16,1029.42,2061.25,2440.00,2524.29,2778.76,599.90,618.87,38.45,0000 0000 0000 0000 000000
2016-04-21 12:09:57,0.06,2.84,0.00,15.58,20.55,24.56,15.27,51.29,1029.35,2061.49,2438.99,2524.00,2778.02,600.24,619.09,38.50,0000 0000 0000 0000 000000
2016-04-21 12:14:59,0.12,2.84,0.00,15.56,20.54,24.51,15.22,51.23,1029.35,2061.77,2437.78,2523.37,2777.20,600.11,619.15,38.55,0000 0000 0000 0000 000000
2016-04-21 12:20:00,0.04,2.85,0.00,15.54,20.52,24.55,15.25,51.22,1029.34,2061.80,2436.67,2522.95,2776.30,599.97,619.02,38.60,0000 0000 0000 0000 000000
2016-04-21 12:25:01,0.07,2.85,0.00,15.52,20.51,24.51,15.25,51.32,1029.33,2061.80,2435.65,2522.18,2775.91,600.25,619.24,38.65,0000 0000 0000 0000 000000
2016-04-21 12:30:03,0.05,2.85,0.00,15.51,20.49,24.47,15.26,51.23,1029.33,2061.91,2434.69,2521.97,2775.10,599.95,618.95,38.70,0000 0000 0000 0000 000000
2016-04-21 12:35:04,0.06,2.86,0.00,15.49,20.47,24.46,15.21,51.21,1029.31,2061.96,2433.85,2521.50,2774.55,600.14,619.33,38.76,0000 0000 0000 0000 000000
2016-04-21 12:40:05,0.06,2.86,0.00,15.47,20.46,24.46,15.23,51.29,1029.32,2061.97,2432.68,2520.99,2773.83,600.17,619.50,38.81,0000 0000 0000 0000 000000
2016-04-21 12:45:06,0.09,2.86,0.00,15.45,20.44,24.45,15.24,51.30,1029.33,2061.98,2431.28,2520.15,2772.84,599.90,619.20,38.86,0000 0000 0000 0000 000000
2016-04-21 12:50:08,0.08,2.87,0.00,15.43,20.42,24.49,15.27,51.32,1029.35,2061.98,2429.87,2519.53,2771.91,600.19,619.56,38.91,0000 0000 0000 0000 000000
2016-04-21 12:55:09,0.05,2.87,0.00,15.41,20.40,24.45,15.31,51.31,1029.33,2061.99,2428.68,2519.00,2771.06,600.14,619.43,38.96,0000 0000 0000 0000 000000